Time,TemperatureF,DewpointF,PressureIn,WindDirection,WindDirectionDegrees,WindSpeedMPH,WindSpeedGustMPH,Humidity,HourlyPrecipIn,Conditions,Clouds,dailyrainin,SolarRadiationWatts/m^2,SoftwareType,DateUTC
2013-05-07 00:03:00,45.0,45.0,-100.00,SW,224,2.0,5.0,100,0.00,,,0.00,0.000000,,2013-05-07 04:03:00,
2013-05-07 00:12:00,45.0,45.0,-100.00,SW,224,2.0,5.0,100,0.00,,,0.00,0.000000,,2013-05-07 04:12:00,
2013-05-07 00:23:00,45.0,45.0,-100.00,SW,224,2.0,5.0,100,0.00,,,0.00,0.000000,,2013-05-07 04:23:00,
2013-05-07 00:53:00,45.0,45.0,-100.00,WSW,252,2.0,4.0,100,0.00,,,0.00,0.000000,,2013-05-07 04:53:00,
2013-05-07 01:02:00,45.0,45.0,-100.00,WSW,252,2.0,4.0,100,0.00,,,0.00,0.000000,,2013-05-07 05:02:00,
2013-05-07 01:12:00,45.0,45.0,-100.00,WSW,252,2.0,4.0,100,0.00,,,0.00,0.000000,,2013-05-07 05:12:00,
2013-05-07 01:22:00,45.0,45.0,-100.00,WSW,252,2.0,4.0,100,0.00,,,0.00,0.000000,,2013-05-07 05:22:00,
2013-05-07 01:52:00,45.0,45.0,-100.00,WNW,284,1.0,4.0,100,0.00,,,0.00,0.000000,,2013-05-07 05:52:00,
2013-05-07 02:02:00,45.0,45.0,-100.00,WNW,284,1.0,4.0,100,0.00,,,0.00,0.000000,,2013-05-07 06:02:00,
2013-05-07 02:12:00,45.0,45.0,-100.00,WNW,284,1.0,4.0,100,0.00,,,0.00,0.000000,,2013-05-07 06:12:00,
2013-05-07 02:22:00,45.0,45.0,-100.00,WNW,284,1.0,4.0,100,0.00,,,0.00,0.000000,,2013-05-07 06:22:00,
2013-05-07 02:52:00,44.0,44.0,-100.00,NW,306,1.0,3.0,100,0.00,,,0.00,0.000000,,2013-05-07 06:52:00,
2013-05-07 03:02:00,44.0,44.0,-100.00,NW,306,1.0,3.0,100,0.00,,,0.00,0.000000,,2013-05-07 07:02:00,
2013-05-07 03:11:00,44.0,44.0,-100.00,NW,306,1.0,3.0,100,0.00,,,0.00,0.000000,,2013-05-07 07:11:00,
2013-05-07 03:22:00,44.0,44.0,-100.00,NW,306,1.0,3.0,100,0.00,,,0.00,0.000000,,2013-05-07 07:22:00,
2013-05-07 03:53:00,43.0,43.0,-100.00,NW,307,1.0,3.0,100,0.00,,,0.00,0.000000,,2013-05-07 07:53:00,
2013-05-07 04:02:00,43.0,43.0,-100.00,NW,307,1.0,3.0,100,0.00,,,0.00,0.000000,,2013-05-07 08:02:00,
2013-05-07 04:11:00,43.0,43.0,-100.00,NW,307,1.0,3.0,100,0.00,,,0.00,0.000000,,2013-05-07 08:11:00,
2013-05-07 04:22:00,43.0,43.0,-100.00,NW,307,1.0,3.0,100,0.00,,,0.00,0.000000,,2013-05-07 08:22:00,
2013-05-07 04:52:00,42.0,42.0,-100.00,WNW,287,1.0,4.0,100,0.00,,,0.00,0.000000,,2013-05-07 08:52:00,
2013-05-07 05:02:00,42.0,42.0,-100.00,WNW,287,1.0,4.0,100,0.00,,,0.00,0.000000,,2013-05-07 09:02:00,
2013-05-07 05:11:00,42.0,42.0,-100.00,WNW,287,1.0,4.0,100,0.00,,,0.00,0.000000,,2013-05-07 09:11:00,
2013-05-07 05:23:00,42.0,42.0,-100.00,WNW,287,1.0,4.0,100,0.00,,,0.00,0.000000,,2013-05-07 09:23:00,
2013-05-07 05:52:00,41.0,41.0,-100.00,West,280,1.0,3.0,100,0.00,,,0.00,1.000000,,2013-05-07 09:52:00,
2013-05-07 06:03:00,41.0,41.0,-100.00,West,280,1.0,3.0,100,0.00,,,0.00,1.000000,,2013-05-07 10:03:00,
2013-05-07 06:12:00,41.0,41.0,-100.00,West,280,1.0,3.0,100,0.00,,,0.00,1.000000,,2013-05-07 10:12:00,
2013-05-07 06:23:00,41.0,41.0,-100.00,West,280,1.0,3.0,100,0.00,,,0.00,1.000000,,2013-05-07 10:23:00,
2013-05-07 06:52:00,41.0,41.0,-100.00,WSW,251,1.0,3.0,100,0.00,,,0.00,23.000000,,2013-05-07 10:52:00,
2013-05-07 07:02:00,41.0,41.0,-100.00,WSW,251,1.0,3.0,100,0.00,,,0.00,23.000000,,2013-05-07 11:02:00,
2013-05-07 07:12:00,41.0,41.0,-100.00,WSW,251,1.0,3.0,100,0.00,,,0.00,23.000000,,2013-05-07 11:12:00,
2013-05-07 07:22:00,41.0,41.0,-100.00,WSW,251,1.0,3.0,100,0.00,,,0.00,23.000000,,2013-05-07 11:22:00,
2013-05-07 07:52:00,48.0,47.0,-100.00,NNE,13,2.0,3.0,98,0.00,,,0.00,191.000000,,2013-05-07 11:52:00,
2013-05-07 08:02:00,48.0,47.0,-100.00,NNE,13,2.0,3.0,98,0.00,,,0.00,191.000000,,2013-05-07 12:02:00,
2013-05-07 08:12:00,48.0,47.0,-100.00,NNE,13,2.0,3.0,98,0.00,,,0.00,191.000000,,2013-05-07 12:12:00,
2013-05-07 08:21:00,48.0,47.0,-100.00,NNE,13,2.0,3.0,98,0.00,,,0.00,191.000000,,2013-05-07 12:21:00,
2013-05-07 08:52:00,53.0,48.0,-100.00,SE,126,3.0,5.0,83,0.00,,,0.00,403.000000,,2013-05-07 12:52:00,
2013-05-07 09:02:00,53.0,48.0,-100.00,SE,126,3.0,5.0,83,0.00,,,0.00,403.000000,,2013-05-07 13:02:00,
2013-05-07 09:11:00,53.0,48.0,-100.00,SE,126,3.0,5.0,83,0.00,,,0.00,403.000000,,2013-05-07 13:11:00,
2013-05-07 09:22:00,53.0,48.0,-100.00,SE,126,3.0,5.0,83,0.00,,,0.00,403.000000,,2013-05-07 13:22:00,
2013-05-07 09:52:00,54.0,48.0,-100.00,SE,134,5.0,8.0,80,0.00,,,0.00,584.000000,,2013-05-07 13:52:00,
2013-05-07 10:02:00,54.0,48.0,-100.00,SE,134,5.0,8.0,80,0.00,,,0.00,584.000000,,2013-05-07 14:02:00,
2013-05-07 10:11:00,54.0,48.0,-100.00,SE,134,5.0,8.0,80,0.00,,,0.00,584.000000,,2013-05-07 14:11:00,
2013-05-07 10:22:00,54.0,48.0,-100.00,SE,134,5.0,8.0,80,0.00,,,0.00,584.000000,,2013-05-07 14:22:00,
2013-05-07 10:52:00,57.0,50.0,-100.00,SSE,149,5.0,9.0,78,0.00,,,0.00,739.000000,,2013-05-07 14:52:00,
2013-05-07 11:01:00,57.0,50.0,-100.00,SSE,149,5.0,9.0,78,0.00,,,0.00,739.000000,,2013-05-07 15:01:00,
2013-05-07 11:12:00,57.0,50.0,-100.00,SSE,149,5.0,9.0,78,0.00,,,0.00,739.000000,,2013-05-07 15:12:00,
2013-05-07 11:22:00,57.0,50.0,-100.00,SSE,149,5.0,9.0,78,0.00,,,0.00,739.000000,,2013-05-07 15:22:00,
2013-05-07 11:53:00,58.0,51.0,-100.00,SE,125,5.0,10.0,77,0.00,,,0.00,852.000000,,2013-05-07 15:53:00,
2013-05-07 12:03:00,58.0,51.0,-100.00,SE,125,5.0,10.0,77,0.00,,,0.00,852.000000,,2013-05-07 16:03:00,
2013-05-07 12:12:00,58.0,51.0,-100.00,SE,125,5.0,10.0,77,0.00,,,0.00,852.000000,,2013-05-07 16:12:00,
2013-05-07 12:22:00,58.0,51.0,-100.00,SE,125,5.0,10.0,77,0.00,,,0.00,852.000000,,2013-05-07 16:22:00,
2013-05-07 14:52:00,65.0,51.0,-100.00,SE,144,7.0,17.0,60,-99.99,,,0.00,887.000000,,2013-05-07 18:52:00,
2013-05-07 15:02:00,65.0,51.0,-100.00,SE,144,7.0,17.0,60,-99.99,,,0.00,887.000000,,2013-05-07 19:02:00,
2013-05-07 15:11:00,65.0,51.0,-100.00,SE,144,7.0,17.0,60,-99.99,,,0.00,887.000000,,2013-05-07 19:11:00,
2013-05-07 15:21:00,65.0,51.0,-100.00,SE,144,7.0,17.0,60,-99.99,,,0.00,887.000000,,2013-05-07 19:21:00,
2013-05-07 15:52:00,66.0,52.0,-100.00,SE,137,6.0,11.0,60,0.00,,,0.00,724.000000,,2013-05-07 19:52:00,
2013-05-07 16:02:00,66.0,52.0,-100.00,SE,137,6.0,11.0,60,0.00,,,0.00,724.000000,,2013-05-07 20:02:00,
2013-05-07 16:12:00,66.0,52.0,-100.00,SE,137,6.0,11.0,60,0.00,,,0.00,724.000000,,2013-05-07 20:12:00,
2013-05-07 16:22:00,66.0,52.0,-100.00,SE,137,6.0,11.0,60,0.00,,,0.00,724.000000,,2013-05-07 20:22:00,
2013-05-07 16:52:00,65.0,51.0,-100.00,SE,134,6.0,13.0,61,0.00,,,0.00,643.000000,,2013-05-07 20:52:00,
2013-05-07 17:02:00,65.0,51.0,-100.00,SE,134,6.0,13.0,61,0.00,,,0.00,643.000000,,2013-05-07 21:02:00,
2013-05-07 17:11:00,65.0,51.0,-100.00,SE,134,6.0,13.0,61,0.00,,,0.00,643.000000,,2013-05-07 21:11:00,
2013-05-07 17:22:00,65.0,51.0,-100.00,SE,134,6.0,13.0,61,0.00,,,0.00,643.000000,,2013-05-07 21:22:00,
2013-05-07 17:53:00,64.0,56.0,-100.00,SE,135,6.0,11.0,74,0.00,,,0.00,465.000000,,2013-05-07 21:53:00,
2013-05-07 18:02:00,64.0,56.0,-100.00,SE,135,6.0,11.0,74,0.00,,,0.00,465.000000,,2013-05-07 22:02:00,
2013-05-07 18:13:00,64.0,56.0,-100.00,SE,135,6.0,11.0,74,0.00,,,0.00,465.000000,,2013-05-07 22:13:00,
2013-05-07 18:22:00,64.0,56.0,-100.00,SE,135,6.0,11.0,74,0.00,,,0.00,465.000000,,2013-05-07 22:22:00,
2013-05-07 18:52:00,63.0,56.0,-100.00,SSE,148,3.0,9.0,79,0.00,,,0.00,258.000000,,2013-05-07 22:52:00,
2013-05-07 19:02:00,63.0,56.0,-100.00,SSE,148,3.0,9.0,79,0.00,,,0.00,258.000000,,2013-05-07 23:02:00,
2013-05-07 19:12:00,63.0,56.0,-100.00,SSE,148,3.0,9.0,79,0.00,,,0.00,258.000000,,2013-05-07 23:12:00,
2013-05-07 19:22:00,63.0,56.0,-100.00,SSE,148,3.0,9.0,79,0.00,,,0.00,258.000000,,2013-05-07 23:22:00,
2013-05-07 19:52:00,61.0,55.0,-100.00,South,173,4.0,11.0,82,0.00,,,0.00,56.000000,,2013-05-07 23:52:00,
2013-05-07 20:02:00,61.0,55.0,-100.00,South,173,4.0,11.0,82,0.00,,,0.00,56.000000,,2013-05-08 00:02:00,
2013-05-07 20:12:00,61.0,55.0,-100.00,South,173,4.0,11.0,82,0.00,,,0.00,56.000000,,2013-05-08 00:12:00,
2013-05-07 20:22:00,61.0,55.0,-100.00,South,173,4.0,11.0,82,0.00,,,0.00,56.000000,,2013-05-08 00:22:00,
2013-05-07 20:52:00,55.0,52.0,-100.00,South,178,2.0,6.0,91,0.00,,,0.00,5.000000,,2013-05-08 00:52:00,
2013-05-07 21:02:00,55.0,52.0,-100.00,South,178,2.0,6.0,91,0.00,,,0.00,5.000000,,2013-05-08 01:02:00,
2013-05-07 21:11:00,55.0,52.0,-100.00,South,178,2.0,6.0,91,0.00,,,0.00,5.000000,,2013-05-08 01:11:00,
2013-05-07 21:22:00,55.0,52.0,-100.00,South,178,2.0,6.0,91,0.00,,,0.00,5.000000,,2013-05-08 01:22:00,
2013-05-07 21:52:00,53.0,52.0,-100.00,ENE,63,1.0,5.0,96,0.00,,,0.00,0.000000,,2013-05-08 01:52:00,
2013-05-07 22:02:00,53.0,52.0,-100.00,ENE,63,1.0,5.0,96,0.00,,,0.00,0.000000,,2013-05-08 02:02:00,
2013-05-07 22:12:00,53.0,52.0,-100.00,ENE,63,1.0,5.0,96,0.00,,,0.00,0.000000,,2013-05-08 02:12:00,
2013-05-07 22:22:00,53.0,52.0,-100.00,ENE,63,1.0,5.0,96,0.00,,,0.00,0.000000,,2013-05-08 02:22:00,
2013-05-07 22:52:00,53.0,52.0,-100.00,North,2,2.0,3.0,98,0.00,,,0.00,0.000000,,2013-05-08 02:52:00,
2013-05-07 23:02:00,53.0,52.0,-100.00,North,2,2.0,3.0,98,0.00,,,0.00,0.000000,,2013-05-08 03:02:00,
2013-05-07 23:11:00,53.0,52.0,-100.00,North,2,2.0,3.0,98,0.00,,,0.00,0.000000,,2013-05-08 03:11:00,
2013-05-07 23:22:00,53.0,52.0,-100.00,North,2,2.0,3.0,98,0.00,,,0.00,0.000000,,2013-05-08 03:22:00,
2013-05-07 23:52:00,52.0,52.0,-100.00,NNE,24,1.0,2.0,99,0.00,,,0.00,0.000000,,2013-05-08 03:52:00,